Weather History for Oscoda, MI

Change the Weather History Date:

Thursday, May 23, 2013

  Actual Average Record
Temperature  
Mean Temperature 46 °F -  
Max Temperature 52 °F 61 °F 87 °F (2007)
Min Temperature 40 °F 42 °F 33 °F (2006)
Degree Days  
Heating Degree Days 19    
Moisture  
Dew Point 42 °F    
Average Humidity 84    
Maximum Humidity 97    
Minimum Humidity 51    
Precipitation  
Precipitation 0.31 in - - ()
Sea Level Pressure  
Sea Level Pressure 29.92 in    
Wind  
Wind Speed 12 mph (North)    
Max Wind Speed 20 mph    
Max Gust Speed 31 mph    
Visibility 8 miles    
Events Rain    
Averages and records for this station are not official NWS values.
T = Trace of Precipitation, MM = Missing Value Source: NWS Daily Summary

Daily Weather History Graph

Daily Weather History Graph

Search for Another Location

Airport:

Trip Planner

Search our weather history database for the weather conditions in past years. The results will help you decide how hot, cold, wet, or windy it might be!

Date:

Astronomy

May. 23, 2013 Rise Set
Actual Time 5:58 AM EDT 9:03 PM EDT
Civil Twilight 5:23 AM EDT 9:38 PM EDT
Nautical Twilight 4:38 AM EDT 10:22 PM EDT
Astronomical Twilight 3:45 AM EDT 11:16 PM EDT
Moon 7:31 PM EDT (5/23) 4:46 AM EDT (5/23)
Length of Visible Light 16h 14m
Length of Day
15h 04m
Waxing Gibbous, 97% of the Moon is Illuminated
May 23
Waxing Gibbous
May 25
Full
May 31
Last Quarter
Jun 8
New
Jun 16
First Quarter

Hourly Weather History & Observations

Time (EDT) Temp. Windchill Dew Point Humidity Pressure Visibility Wind Dir Wind Speed Gust Speed Precip Events Conditions
12:13 AM 52.7 °F - 52.0 °F 97% 29.68 in 10.0 mi NNE 10.4 mph - N/A Rain Rain
12:34 AM 52.9 °F - 52.2 °F 97% 29.69 in 10.0 mi North 6.9 mph - 0.01 in Rain Light Rain
12:54 AM 52.9 °F - 52.2 °F 97% 29.69 in 10.0 mi North 6.9 mph - 0.01 in Rain Heavy Rain
1:14 AM 52.9 °F - 52.2 °F 97% 29.69 in 7.0 mi North 10.4 mph - 0.01 in Rain Light Rain
1:34 AM 52.9 °F - 52.2 °F 97% 29.69 in 7.0 mi North 9.2 mph - 0.01 in   Drizzle
1:54 AM 52.9 °F - 52.2 °F 97% 29.68 in 7.0 mi North 8.1 mph - 0.01 in   Drizzle
2:13 AM 52.7 °F - 52.0 °F 97% 29.69 in 7.0 mi North 9.2 mph - N/A Rain Light Rain
2:34 AM 52.7 °F - 51.8 °F 97% 29.68 in 10.0 mi North 11.5 mph - N/A Rain Light Rain
2:54 AM 52.7 °F - 51.8 °F 97% 29.68 in 10.0 mi North 10.4 mph - N/A   Light Drizzle
3:13 AM 52.5 °F - 51.6 °F 97% 29.69 in 7.0 mi NNW 9.2 mph 16.1 mph 0.01 in   Heavy Drizzle
3:34 AM 52.5 °F - 51.8 °F 97% 29.69 in 4.0 mi North 10.4 mph 16.1 mph 0.07 in Rain Rain
3:54 AM 52.7 °F - 51.8 °F 97% 29.70 in 7.0 mi North 9.2 mph - 0.11 in Rain Light Rain
4:13 AM 52.7 °F - 51.8 °F 97% 29.70 in 7.0 mi North 10.4 mph - 0.01 in Rain Light Rain
4:34 AM 52.7 °F - 51.8 °F 97% 29.71 in 4.0 mi North 15.0 mph 20.7 mph 0.04 in Rain Rain
4:54 AM 52.7 °F - 51.6 °F 96% 29.72 in 7.0 mi North 12.7 mph - 0.07 in Rain Light Rain
5:13 AM 52.7 °F - 51.4 °F 95% 29.72 in 10.0 mi North 16.1 mph 23.0 mph 0.01 in Rain Rain
5:34 AM 51.1 °F - 49.5 °F 94% 29.73 in 7.0 mi North 18.4 mph 26.5 mph 0.05 in Rain Light Rain
5:54 AM 49.5 °F - 47.8 °F 94% 29.75 in 10.0 mi North 16.1 mph 25.3 mph 0.05 in   Light Drizzle
6:14 AM 48.6 °F - 46.9 °F 94% 29.76 in 10.0 mi North 16.1 mph 21.9 mph N/A   Overcast
6:34 AM 48.0 °F - 46.2 °F 93% 29.78 in 10.0 mi North 15.0 mph 24.2 mph N/A   Overcast
6:54 AM 47.5 °F - 45.9 °F 94% 29.79 in 4.0 mi North 16.1 mph 24.2 mph N/A   Drizzle
7:14 AM 46.4 °F 40.7 °F 45.0 °F 95% 29.81 in 2.0 mi North 12.7 mph 25.3 mph 0.01 in Rain Light Rain
7:34 AM 45.3 °F 39.0 °F 44.2 °F 96% 29.82 in 2.0 mi North 13.8 mph 21.9 mph 0.01 in   Drizzle
7:54 AM 45.0 °F 37.6 °F 43.9 °F 96% 29.83 in 2.0 mi North 17.3 mph 23.0 mph 0.01 in   Drizzle
8:14 AM 44.6 °F 37.4 °F 43.3 °F 95% 29.84 in 2.0 mi North 16.1 mph 23.0 mph N/A Rain Light Rain
8:34 AM 44.1 °F 36.5 °F 42.8 °F 95% 29.85 in 4.0 mi North 17.3 mph 24.2 mph N/A Rain Rain
8:54 AM 44.1 °F 37.1 °F 43.0 °F 96% 29.86 in 5.0 mi North 15.0 mph 21.9 mph N/A Rain Rain
9:14 AM 43.7 °F 35.7 °F 42.4 °F 95% 29.87 in 5.0 mi North 18.4 mph 21.9 mph 0.01 in Rain Rain
9:34 AM 43.9 °F 36.8 °F 42.4 °F 95% 29.88 in 5.0 mi North 15.0 mph 24.2 mph 0.02 in Rain Light Rain
9:51 AM 43.7 °F 35.7 °F 41.7 °F 93% 29.90 in 7.0 mi North 18.4 mph 29.9 mph 0.03 in Rain Light Rain
10:14 AM 43.3 °F 35.8 °F 41.4 °F 93% 29.90 in 10.0 mi North 16.1 mph 24.2 mph N/A Rain Light Rain
10:34 AM 43.0 °F 35.7 °F 41.0 °F 93% 29.92 in 10.0 mi North 15.0 mph - N/A   Light Drizzle
10:54 AM 43.2 °F 37.0 °F 41.0 °F 92% 29.93 in 10.0 mi North 11.5 mph 21.9 mph N/A   Light Drizzle
11:14 AM 42.8 °F 34.3 °F 40.3 °F 91% 29.94 in 10.0 mi North 19.6 mph 26.5 mph N/A   Light Drizzle
11:34 AM 41.9 °F 34.0 °F 39.9 °F 93% 29.95 in 4.0 mi North 16.1 mph 26.5 mph N/A Rain Light Rain
11:54 AM 42.3 °F 34.4 °F 40.1 °F 92% 29.95 in 7.0 mi North 16.1 mph 31.1 mph 0.01 in Rain Light Rain
12:14 PM 42.1 °F 33.3 °F 40.1 °F 93% 29.96 in 7.0 mi North 19.6 mph 27.6 mph N/A Rain Light Rain
12:33 PM 41.9 °F 33.4 °F 39.4 °F 91% 29.97 in 7.0 mi North 18.4 mph 25.3 mph 0.01 in Rain Light Rain
12:54 PM 42.8 °F 34.3 °F 40.6 °F 92% 29.97 in 10.0 mi North 19.6 mph 25.3 mph 0.01 in Rain Light Rain
1:14 PM 42.8 °F 34.8 °F 41.0 °F 93% 29.98 in 10.0 mi North 17.3 mph 21.9 mph N/A Rain Light Rain
1:33 PM 42.8 °F 35.4 °F 40.5 °F 91% 29.98 in 10.0 mi North 15.0 mph 24.2 mph N/A Rain Light Rain
1:54 PM 42.4 °F 33.8 °F 40.5 °F 93% 29.99 in 10.0 mi North 19.6 mph 25.3 mph N/A   Light Drizzle
2:14 PM 41.9 °F 33.7 °F 39.4 °F 91% 30.00 in 10.0 mi NNW 17.3 mph 25.3 mph N/A Rain Light Rain
2:33 PM 42.1 °F 33.9 °F 39.2 °F 90% 30.00 in 10.0 mi North 17.3 mph 25.3 mph N/A Rain Light Rain
2:54 PM 43.2 °F 35.3 °F 39.9 °F 88% 30.01 in 10.0 mi North 17.3 mph 23.0 mph N/A   Overcast
3:14 PM 43.3 °F 35.8 °F 39.0 °F 85% 30.01 in 10.0 mi North 16.1 mph 20.7 mph N/A   Overcast
3:33 PM 44.1 °F 37.1 °F 38.8 °F 82% 30.02 in 10.0 mi North 15.0 mph 25.3 mph N/A Rain Light Rain
3:54 PM 44.8 °F 37.4 °F 37.6 °F 76% 30.02 in 10.0 mi North 17.3 mph 21.9 mph N/A   Overcast
4:14 PM 45.3 °F 38.4 °F 36.3 °F 71% 30.03 in 10.0 mi North 16.1 mph - N/A   Overcast
4:34 PM 45.5 °F 38.9 °F 35.6 °F 68% 30.04 in 10.0 mi North 15.0 mph 21.9 mph N/A   Overcast
4:54 PM 45.1 °F 39.1 °F 35.6 °F 69% 30.04 in 10.0 mi NNW 12.7 mph - N/A   Overcast
5:14 PM 45.7 °F 39.5 °F 35.2 °F 67% 30.04 in 10.0 mi North 13.8 mph 20.7 mph N/A   Overcast
5:34 PM 46.9 °F - 35.4 °F 64% 30.04 in 10.0 mi North 13.8 mph - N/A   Overcast
5:54 PM 47.5 °F - 35.1 °F 62% 30.05 in 10.0 mi North 17.3 mph 20.7 mph N/A   Overcast
6:14 PM 47.8 °F - 33.4 °F 57% 30.05 in 10.0 mi North 11.5 mph 21.9 mph N/A   Mostly Cloudy
6:34 PM 49.8 °F - 33.6 °F 54% 30.06 in 10.0 mi North 18.4 mph 23.0 mph N/A   Scattered Clouds
6:54 PM 49.1 °F - 33.1 °F 54% 30.06 in 10.0 mi North 15.0 mph 23.0 mph N/A   Clear
7:14 PM 49.5 °F - 34.5 °F 56% 30.07 in 10.0 mi North 10.4 mph - N/A   Clear
7:34 PM 50.2 °F - 32.7 °F 51% 30.07 in 10.0 mi North 12.7 mph - N/A   Clear
7:54 PM 50.0 °F - 33.4 °F 53% 30.09 in 10.0 mi North 13.8 mph 19.6 mph N/A   Clear
8:14 PM 49.1 °F - 33.4 °F 55% 30.10 in 10.0 mi North 11.5 mph 17.3 mph N/A   Clear
8:34 PM 48.2 °F - 33.6 °F 57% 30.10 in 10.0 mi North 8.1 mph - N/A   Clear
8:54 PM 46.4 °F 42.4 °F 34.5 °F 63% 30.11 in 10.0 mi North 8.1 mph - N/A   Clear
9:14 PM 45.0 °F 41.2 °F 34.7 °F 67% 30.11 in 10.0 mi North 6.9 mph - N/A   Clear
9:34 PM 44.6 °F 41.4 °F 34.7 °F 68% 30.12 in 10.0 mi North 5.8 mph - N/A   Clear
9:54 PM 40.6 °F 37.5 °F 34.7 °F 79% 30.13 in 10.0 mi NNW 4.6 mph - N/A   Clear
10:14 PM 41.0 °F 37.1 °F 34.7 °F 78% 30.14 in 10.0 mi NNW 5.8 mph - N/A   Clear
10:34 PM 40.6 °F 36.0 °F 34.7 °F 79% 30.15 in 10.0 mi NNW 6.9 mph - N/A   Clear
10:54 PM 40.8 °F 36.9 °F 34.9 °F 79% 30.15 in 10.0 mi NNW 5.8 mph - N/A   Clear
11:13 PM 41.9 °F 36.9 °F 35.6 °F 78% 30.16 in 10.0 mi North 8.1 mph - N/A   Scattered Clouds
11:34 PM 41.5 °F 36.4 °F 35.8 °F 80% 30.17 in 10.0 mi North 8.1 mph - N/A   Scattered Clouds
11:54 PM 42.3 °F 34.4 °F 33.8 °F 72% 30.18 in 10.0 mi North 16.1 mph 20.7 mph N/A   Clear